Notices

What's New in latest Release from April 7th, 2021:

- Updated Glossary, including Speed of Maximum Gust, and Total Hourly Precipitation

- Updated national and regional climate services offices contacts and prices information

- Addition of station inventory lists for 1981-2010, 1971-2000, and 1961-1990 Normals.

If you haven't already, please take our survey and provide feedback about our website: https://eccc.sondage-survey.ca/f/LanguageSelection.aspx?s=442ca660-fcf1-47c0-95a9-59707d6fd709

Hourly Data Report for April 06, 2021

NANAIMO A
BRITISH COLUMBIA
Current Station Operator: NAVCAN

49°03'16.000" N
123°52'12.000" W
28.00 m
1025365
YCD

Download Data

Hourly Data (April 2021)
Hourly Data Report for April 6, 2021
TIME
LST
Temp Definition
°C
Dew Point Definition
°C
Rel Hum Definition
%
Precip. Amount Definition
mm

Wind Dir Definition
10's deg

Wind Spd Definition
km/h
Visibility Definition
km
Stn Press Definition
kPa
Hmdx Definition


Wind Chill Definition


Weather Definition


00:00 2.1 0.5 89 LegendMM 20 2 LegendMM 101.80     LegendNANA
01:00 1.1 0.3 94 LegendMM 17 7 LegendMM 101.78     LegendNANA
02:00 1.1 0.0 92 LegendMM 20 3 LegendMM 101.80     LegendNANA
03:00 0.0 -0.8 94 LegendMM 19 3 LegendMM 101.82   -1 LegendNANA
04:00 0.8 0.3 96 LegendMM 20 4 LegendMM 101.82     LegendNANA
05:00 0.8 -0.6 90 LegendMM 25 6 LegendMM 101.80     LegendNANA
06:00 0.7 -0.2 94 LegendMM 18 1 LegendMM 101.80     LegendNANA
07:00 2.1 1.0 92 LegendMM 12 3 LegendMM 101.82     LegendNANA
08:00 5.5 2.0 78 LegendMM 5 4 LegendMM 101.81     LegendNANA
09:00 7.9 2.7 70 LegendMM 4 5 LegendMM 101.79     LegendNANA
10:00 9.5 3.6 66 LegendMM 1 7 LegendMM 101.75     LegendNANA
11:00 10.6 3.8 63 LegendMM 7 14 LegendMM 101.69     LegendNANA
12:00 10.4 4.1 65 LegendMM 8 10 LegendMM 101.65     LegendNANA
13:00 10.8 5.1 68 LegendMM 7 10 LegendMM 101.63     LegendNANA
14:00 11.0 3.6 60 LegendMM 12 12 LegendMM 101.57     LegendNANA
15:00 11.0 3.7 60 LegendMM 10 11 LegendMM 101.51     LegendNANA
16:00 11.8 3.9 58 LegendMM 10 7 LegendMM 101.48     LegendNANA
17:00 11.1 4.1 62 LegendMM 9 9 LegendMM 101.43     LegendNANA
18:00 10.2 4.7 68 LegendMM 8 5 LegendMM 101.39     LegendNANA
19:00 9.2 4.3 72 LegendMM 27 2 LegendMM 101.33     LegendNANA
20:00 7.6 4.5 81 LegendMM 26 3 LegendMM 101.32     LegendNANA
21:00 6.8 4.7 87 LegendMM 27 3 LegendMM 101.31     LegendNANA
22:00 6.3 4.8 90 LegendMM 34 1 LegendMM 101.29     LegendNANA
23:00 6.0 4.5 91 LegendMM 24 2 LegendMM 101.27     LegendNANA

Notes on Data Quality.

Legend

  • E = Estimated
  • M = Missing
  • NA = Not Available*
  • [empty] = Indicates an unobserved value
Date modified: